CAPE
0 0 0 0 0 0 0 0 0 0 0 0 0 0 0 0 0 0 0 0 0 0 0 0 0 0 0 0 0 14 0 79 101 24 40 87 173 370 481 442 490 442 355 312 335
0 0 0 0 0 0 0 0 0 0 0 0 0 0 0 0 0 0 0 0 0 0 0 0 0 0 0 0 0 0 0 0 18 141 147 32 134 375 446 487 527 473 319 324 343
0 0 0 0 0 0 0 0 0 0 0 0 0 0 0 0 0 0 0 0 0 0 0 0 0 0 0 0 0 0 0 0 0 0 216 144 351 434 479 457 524 490 360 458 495
0 0 0 0 0 0 0 0 0 0 0 0 0 0 0 0 0 0 0 0 0 0 0 0 0 0 0 0 0 0 0 0 0 15 262 317 489 518 529 474 272 510 470 577 586
0 0 0 0 0 0 0 0 0 0 0 0 0 0 0 0 0 0 0 0 0 0 0 0 0 0 0 0 0 0 0 0 90 122 230 422 526 565 513 395 586 532 487 615 625
0 0 0 0 0 0 0 0 0 0 0 0 0 0 0 0 0 0 0 0 0 0 0 0 0 0 0 0 0 0 0 0 3 523 603 627 654 618 642 626 590 523 504 626 581
0 0 0 0 0 0 0 0 0 0 0 0 0 0 0 0 0 0 0 0 0 0 0 0 0 0 0 0 0 0 0 0 0 290 542 661 522 352 508 718 699 679 638 586 615
0 0 0 0 0 0 0 0 0 0 0 0 0 0 0 0 0 0 0 0 0 0 0 0 0 0 0 0 0 0 0 0 0 0 15 187 0 61 305 572 764 772 749 662 652
0 0 0 0 0 0 0 0 0 0 0 0 0 0 0 0 0 0 0 0 0 0 0 0 0 0 0 0 0 0 0 0 0 0 0 0 0 80 621 663 799 835 868 810 752
0 0 0 0 0 0 0 0 0 0 0 0 0 0 0 0 0 0 0 0 0 0 0 0 0 0 0 0 0 0 0 0 0 0 0 0 0 0 220 602 732 917 1012 949 877
0 0 0 0 0 0 0 0 0 0 0 0 0 0 0 0 0 0 0 0 0 0 0 0 0 0 0 0 0 0 0 0 0 0 0 0 0 0 0 273 703 885 1012 967 886
0 0 0 0 0 0 0 0 0 0 0 0 0 0 0 0 0 0 0 0 0 0 0 0 0 0 0 0 0 0 0 0 0 0 0 0 0 0 1 75 356 611 848 929 947
0 0 0 0 0 0 0 0 0 0 0 0 0 0 0 0 0 0 0 0 0 0 0 0 0 0 0 0 0 0 0 0 0 0 0 0 0 0 0 0 244 464 689 825 896
0 0 0 0 0 0 0 0 0 0 0 0 0 0 0 0 0 0 0 0 0 0 0 0 0 0 0 0 0 0 0 0 0 0 0 0 0 0 0 0 0 1 248 510 748
0 0 0 0 0 0 0 0 0 0 0 0 0 0 0 0 0 0 0 0 0 0 0 0 0 0 0 0 0 0 0 0 0 0 0 0 0 0 0 0 0 0 0 2 304
0 0 0 0 0 0 0 0 0 0 0 0 0 0 0 0 0 0 0 0 0 0 0 0 0 0 0 0 0 0 0 0 0 0 0 0 0 0 0 0 0 0 0 0 185
0 0 0 0 0 0 0 0 0 0 0 0 0 0 0 0 0 0 0 0 0 0 0 0 0 0 0 0 0 0 0 0 0 0 0 0 0 0 0 0 0 0 0 0 34
0 0 0 0 0 0 0 0 0 0 0 0 0 0 0 0 0 0 0 0 0 0 0 0 0 0 0 0 0 0 0 0 0 0 0 0 0 0 0 0 0 0 0 0 1
0 0 0 0 0 0 0 0 0 0 0 0 0 0 0 0 0 0 0 0 0 0 0 0 0 0 0 0 0 0 0 0 0 0 0 0 0 0 0 0 0 0 0 0 4
0 0 0 0 0 0 0 0 0 0 0 0 0 0 0 0 0 0 0 0 0 0 0 0 0 0 0 0 0 0 0 0 0 0 0 0 0 0 0 0 0 0 1 0 81
0 0 0 0 0 0 0 0 0 0 0 0 0 0 0 0 0 0 0 0 0 0 0 0 0 0 0 0 0 0 0 0 0 0 0 0 0 0 0 0 0 0 0 10 111
0 0 0 0 0 0 0 0 0 0 0 0 0 0 0 0 0 0 0 0 0 0 0 0 0 0 0 0 0 0 0 0 0 0 0 0 0 0 0 0 0 0 0 0 0
0 0 0 0 0 0 0 0 0 0 0 0 0 0 0 0 0 0 0 0 0 0 0 0 0 0 0 0 0 0 0 0 0 0 0 0 0 0 0 0 0 0 0 0 0
0 0 0 0 0 0 0 0 0 0 0 0 0 0 0 0 0 0 0 0 0 0 0 0 0 0 0 0 0 0 0 0 0 0 0 0 0 0 0 0 0 0 0 0 0
0 0 0 0 0 0 0 0 0 0 0 0 0 0 0 0 0 0 0 0 0 0 0 0 0 0 0 0 0 0 0 0 0 0 0 0 0 0 0 3 1 0 7 0 0
0 0 0 0 0 0 0 0 0 0 0 0 0 0 0 0 0 0 0 0 0 0 0 0 0 0 0 0 0 0 0 0 0 0 0 0 0 0 16 141 87 208 157 111 218
0 0 0 0 0 0 0 0 0 0 0 0 0 0 0 0 0 0 0 0 0 0 0 0 0 0 0 0 0 0 0 0 0 0 0 0 0 0 182 336 380 571 685 625 836
CIN
-0 -0 -0 -0 -0 -0 -0 -0 -0 -0 -0 -0 -0 -0 -0 -0 -0 -0 -0 -0 -0 -0 -0 -0 -0 -0 -0 -0 -0 -225 -0 -25 -26 -42 -33 -72 -40 -65 -82 -60 -78 -96 -79 -104 -177
-0 -0 -0 -0 -0 -0 -0 -0 -0 -0 -0 -0 -0 -0 -0 -0 -0 -0 -0 -0 -0 -0 -0 -0 -0 -0 -0 -0 -0 -0 -0 -0 -61 -56 -45 -78 -62 -48 -51 -56 -71 -96 -159 -191 -163
-0 -0 -0 -0 -0 -0 -0 -0 -0 -0 -0 -0 -0 -0 -0 -0 -0 -0 -0 -0 -0 -0 -0 -0 -0 -0 -0 -0 -0 -0 -0 -0 -0 -0 -68 -67 -63 -64 -49 -37 -36 -45 -122 -164 -119
-0 -0 -0 -0 -0 -0 -0 -0 -0 -0 -0 -0 -0 -0 -0 -0 -0 -0 -0 -0 -0 -0 -0 -0 -0 -0 -0 -0 -0 -0 -0 -0 -0 -68 -56 -58 -66 -64 -63 -34 -77 -86 -125 -150 -110
-0 -0 -0 -0 -0 -0 -0 -0 -0 -0 -0 -0 -0 -0 -0 -0 -0 -0 -0 -0 -0 -0 -0 -0 -0 -0 -0 -0 -0 -0 -0 -0 -44 -67 -58 -77 -48 -62 -74 -99 -115 -136 -163 -122 -105
-0 -0 -0 -0 -0 -0 -0 -0 -0 -0 -0 -0 -0 -0 -0 -0 -0 -0 -0 -0 -0 -0 -0 -0 -0 -0 -0 -0 -0 -0 -0 -0 -76 -47 -42 -41 -43 -69 -80 -126 -132 -149 -139 -131 -106
-0 -0 -0 -0 -0 -0 -0 -0 -0 -0 -0 -0 -0 -0 -0 -0 -0 -0 -0 -0 -0 -0 -0 -0 -0 -0 -0 -0 -0 -0 -0 -0 -0 -56 -38 -56 -50 -44 -118 -154 -138 -137 -148 -143 -127
-0 -0 -0 -0 -0 -0 -0 -0 -0 -0 -0 -0 -0 -0 -0 -0 -0 -0 -0 -0 -0 -0 -0 -0 -0 -0 -0 -0 -0 -0 -0 -0 -0 -0 -103 -86 -0 -104 -159 -146 -127 -143 -159 -152 -132
-0 -0 -0 -0 -0 -0 -0 -0 -0 -0 -0 -0 -0 -0 -0 -0 -0 -0 -0 -0 -0 -0 -0 -0 -0 -0 -0 -0 -0 -0 -0 -0 -0 -0 -0 -0 -0 -141 -178 -146 -115 -136 -140 -152 -144
-0 -0 -0 -0 -0 -0 -0 -0 -0 -0 -0 -0 -0 -0 -0 -0 -0 -0 -0 -0 -0 -0 -0 -0 -0 -0 -0 -0 -0 -0 -0 -0 -0 -0 -0 -0 -0 -0 -204 -171 -147 -137 -151 -143 -138
-0 -0 -0 -0 -0 -0 -0 -0 -0 -0 -0 -0 -0 -0 -0 -0 -0 -0 -0 -0 -0 -0 -0 -0 -0 -0 -0 -0 -0 -0 -0 -0 -0 -0 -0 -0 -0 -0 -0 -196 -190 -168 -162 -141 -104
-0 -0 -0 -0 -0 -0 -0 -0 -0 -0 -0 -0 -0 -0 -0 -0 -0 -0 -0 -0 -0 -0 -0 -0 -0 -0 -0 -0 -0 -0 -0 -0 -0 -0 -0 -0 -0 -0 -49 -190 -134 -153 -186 -156 -119
-0 -0 -0 -0 -0 -0 -0 -0 -0 -0 -0 -0 -0 -0 -0 -0 -0 -0 -0 -0 -0 -0 -0 -0 -0 -0 -0 -0 -0 -0 -0 -0 -0 -0 -0 -0 -0 -0 -0 -0 -201 -201 -203 -174 -141
-0 -0 -0 -0 -0 -0 -0 -0 -0 -0 -0 -0 -0 -0 -0 -0 -0 -0 -0 -0 -0 -0 -0 -0 -0 -0 -0 -0 -0 -0 -0 -0 -0 -0 -0 -0 -0 -0 -0 -0 -0 -3 -228 -212 -197
-0 -0 -0 -0 -0 -0 -0 -0 -0 -0 -0 -0 -0 -0 -0 -0 -0 -0 -0 -0 -0 -0 -0 -0 -0 -0 -0 -0 -0 -0 -0 -0 -0 -0 -0 -0 -0 -0 -0 -0 -0 -0 -0 -182 -232
-0 -0 -0 -0 -0 -0 -0 -0 -0 -0 -0 -0 -0 -0 -0 -0 -0 -0 -0 -0 -0 -0 -0 -0 -0 -0 -0 -0 -0 -0 -0 -0 -0 -0 -0 -0 -0 -0 -0 -0 -0 -0 -0 -0 -262
-0 -0 -0 -0 -0 -0 -0 -0 -0 -0 -0 -0 -0 -0 -0 -0 -0 -0 -0 -0 -0 -0 -0 -0 -0 -0 -0 -0 -0 -0 -0 -0 -0 -0 -0 -0 -0 -0 -0 -0 -0 -0 -0 -0 -284
-0 -0 -0 -0 -0 -0 -0 -0 -0 -0 -0 -0 -0 -0 -0 -0 -0 -0 -0 -0 -0 -0 -0 -0 -0 -0 -0 -0 -0 -0 -0 -0 -0 -0 -0 -0 -0 -0 -0 -0 -0 -0 -0 -0 -315
-0 -0 -0 -0 -0 -0 -0 -0 -0 -0 -0 -0 -0 -0 -0 -0 -0 -0 -0 -0 -0 -0 -0 -0 -0 -0 -0 -0 -0 -0 -0 -0 -0 -0 -0 -0 -0 -0 -0 -0 -0 -0 -0 -0 -226
-0 -0 -0 -0 -0 -0 -0 -0 -0 -0 -0 -0 -0 -0 -0 -0 -0 -0 -0 -0 -0 -0 -0 -0 -0 -0 -0 -0 -0 -0 -0 -0 -0 -0 -0 -0 -0 -0 -0 -0 -0 -0 -44 -0 -191
-0 -0 -0 -0 -0 -0 -0 -0 -0 -0 -0 -0 -0 -0 -0 -0 -0 -0 -0 -0 -0 -0 -0 -0 -0 -0 -0 -0 -0 -0 -0 -0 -0 -0 -0 -0 -0 -0 -0 -0 -0 -0 -0 -47 -152
-0 -0 -0 -0 -0 -0 -0 -0 -0 -0 -0 -0 -0 -0 -0 -0 -0 -0 -0 -0 -0 -0 -0 -0 -0 -0 -0 -0 -0 -0 -0 -0 -0 -0 -0 -0 -0 -0 -0 -0 -0 -0 -0 -0 -0
-0 -0 -0 -0 -0 -0 -0 -0 -0 -0 -0 -0 -0 -0 -0 -0 -0 -0 -0 -0 -0 -0 -0 -0 -0 -0 -0 -0 -0 -0 -0 -0 -0 -0 -0 -0 -0 -0 -0 -0 -0 -0 -0 -0 -0
-0 -0 -0 -0 -0 -0 -0 -0 -0 -0 -0 -0 -0 -0 -0 -0 -0 -0 -0 -0 -0 -0 -0 -0 -0 -0 -0 -0 -0 -0 -0 -0 -0 -0 -0 -0 -0 -0 -0 -0 -0 -0 -0 -0 -0
-0 -0 -0 -0 -0 -0 -0 -0 -0 -0 -0 -0 -0 -0 -0 -0 -0 -0 -0 -0 -0 -0 -0 -0 -0 -0 -0 -0 -0 -0 -0 -0 -0 -0 -0 -0 -0 -0 -0 -108 -131 -8 -99 -0 -0
-0 -0 -0 -0 -0 -0 -0 -0 -0 -0 -0 -0 -0 -0 -0 -0 -0 -0 -0 -0 -0 -0 -0 -0 -0 -0 -0 -0 -0 -0 -0 -0 -0 -0 -0 -0 -0 -0 -214 -218 -198 -219 -175 -133 -135
-0 -0 -0 -0 -0 -0 -0 -0 -0 -0 -0 -0 -0 -0 -0 -0 -0 -0 -0 -0 -0 -0 -0 -0 -0 -0 -0 -0 -0 -0 -0 -0 -0 -0 -0 -0 -0 -0 -152 -165 -227 -268 -321 -314 -318
Wind_Speed
21 22 23 24 24 23 23 23 22 22 22 21 21 21 21 21 21 18 21 20 19 18 19 19 18 17 16 17 16 17 21 21 19 18 16 15 16 17 17 16 16 16 15 15 15
22 23 24 24 23 23 22 22 22 21 21 21 20 20 20 20 21 21 20 20 20 19 20 19 18 16 15 16 16 18 20 18 16 16 17 15 15 15 15 15 14 16 17 15 15
23 24 24 23 23 22 22 21 21 20 20 20 20 20 19 19 18 16 17 23 21 22 21 20 18 16 16 15 16 16 17 12 13 13 14 16 15 15 15 14 12 14 15 16 16
23 23 23 23 22 22 21 20 20 20 20 20 19 19 19 16 10 12 19 25 27 23 20 19 17 16 15 14 15 15 12 11 11 13 14 12 14 14 12 13 15 16 17 17 17
22 22 22 22 22 21 20 20 20 20 20 19 19 18 16 15 18 17 18 24 25 23 20 17 16 15 14 13 11 14 11 9 11 11 11 11 10 10 12 12 16 18 18 18 18
21 21 22 22 22 22 20 19 19 20 20 19 19 18 16 11 14 13 6 19 23 19 17 15 13 14 13 13 13 10 11 10 11 13 12 10 9 11 12 14 15 17 18 18 18
21 21 22 22 22 22 21 20 20 19 19 18 18 17 17 21 14 13 8 22 19 16 12 15 13 12 12 11 10 11 10 8 17 16 18 15 10 14 12 15 15 16 17 17 17
21 22 22 22 21 20 20 20 19 19 18 18 17 16 18 18 18 13 11 9 13 11 10 10 11 11 10 10 10 11 13 18 11 17 5 14 11 10 13 14 15 15 16 16 17
23 23 23 22 21 21 20 19 18 15 14 12 15 16 16 17 15 8 8 9 9 8 8 9 9 10 10 13 15 16 10 20 18 20 17 11 12 11 13 13 14 15 15 15 16
25 25 24 23 23 22 20 18 14 14 14 15 16 17 15 11 8 7 8 10 9 7 6 7 10 9 10 10 12 18 19 22 21 19 19 14 13 12 11 11 12 14 14 15 14
28 27 26 25 23 22 18 14 17 17 15 15 13 14 14 14 9 8 6 8 10 8 4 8 7 7 5 12 13 18 25 24 22 21 21 18 16 15 9 12 13 13 15 15 16
30 29 28 27 25 22 16 16 16 16 20 18 22 21 15 14 11 9 5 6 8 7 9 9 8 2 10 10 14 19 26 25 25 16 24 22 19 18 6 10 14 14 15 16 16
31 31 29 27 23 15 14 15 15 18 18 16 13 13 11 7 10 5 4 7 9 8 9 8 13 9 5 10 21 25 18 25 27 29 21 23 18 15 11 10 13 16 16 16 18
33 32 29 26 18 15 15 14 18 14 17 15 14 13 8 8 10 10 3 7 12 9 10 16 15 12 11 15 15 23 9 19 28 26 26 24 24 22 20 15 11 13 16 17 18
36 34 30 22 18 15 14 18 12 13 16 15 13 11 8 7 12 10 7 9 10 12 11 15 14 13 11 9 6 13 13 26 26 25 24 21 22 20 19 15 17 12 12 14 17
37 34 27 17 15 14 17 13 14 15 16 13 12 11 7 11 13 12 8 10 11 13 15 16 16 14 15 11 3 16 23 22 20 21 27 21 19 21 16 17 21 17 11 10 15
35 31 18 13 13 13 14 13 16 16 15 14 15 11 7 9 12 12 5 5 9 13 16 18 3 12 9 14 14 14 19 21 20 20 23 19 21 26 24 23 16 23 12 9 17
31 22 15 14 14 16 11 14 16 14 15 16 16 12 9 9 9 11 7 6 7 12 17 19 16 10 7 4 10 7 10 17 18 18 26 22 22 21 23 28 26 20 9 9 13
26 18 16 17 16 15 12 14 15 13 16 19 15 13 10 10 12 8 6 5 5 7 7 14 15 12 9 8 1 8 8 18 20 22 27 24 26 30 21 24 20 14 9 10 13
21 15 17 16 11 14 13 14 14 14 18 16 16 15 14 12 9 7 8 14 12 3 9 16 20 18 15 9 12 9 8 13 16 23 25 22 25 22 24 23 20 15 10 8 8
16 14 15 14 15 13 15 17 18 20 19 17 16 16 14 13 11 9 10 13 16 16 5 12 14 17 19 12 10 13 16 18 19 20 25 27 25 17 20 24 23 19 17 14 6
17 14 16 17 14 14 16 18 20 20 20 18 17 17 15 16 14 13 13 15 20 14 14 12 18 22 22 19 18 17 17 15 21 22 22 25 30 18 20 22 18 19 21 20 15
15 15 15 16 14 15 16 16 17 20 20 19 18 18 19 18 18 17 17 16 21 18 16 13 19 27 26 19 18 21 22 20 22 22 22 26 28 13 21 20 19 19 20 21 19
15 15 16 15 15 15 16 17 16 18 17 19 19 16 18 18 18 19 19 18 22 21 20 17 20 24 31 31 26 32 29 23 23 27 27 25 31 23 22 24 19 18 19 19 17
16 16 15 16 16 15 16 16 18 18 19 20 17 20 21 21 22 22 22 23 21 22 21 22 30 28 31 34 33 33 31 30 27 31 31 31 25 31 24 24 25 23 21 20 19
16 16 15 16 16 14 17 17 18 19 20 20 20 23 20 21 21 25 27 24 25 24 25 25 29 29 35 32 33 37 35 30 28 27 30 31 30 27 23 23 24 25 23 21 19
18 17 16 17 16 15 16 17 18 20 16 19 22 23 22 22 27 27 24 25 26 30 32 30 31 32 39 34 39 42 36 33 28 25 25 28 27 26 24 22 22 24 22 22 22
Wind_Direction
310 311 313 315 313 304 302 300 292 288 282 277 273 271 269 265 253 187 186 165 152 137 117 129 139 134 125 105 116 116 62 49 75 94 74 61 61 66 56 41 43 35 47 34 94
315 315 316 316 308 302 298 295 288 281 277 275 271 269 270 269 250 192 174 155 158 124 146 146 127 145 133 109 111 92 57 74 104 82 68 59 59 89 76 57 57 29 19 68 91
318 317 314 308 302 296 291 286 281 274 271 269 267 267 265 265 270 141 257 158 135 141 145 150 150 134 119 108 101 104 84 141 133 113 91 60 69 77 69 75 96 64 52 89 97
316 313 306 300 295 289 282 275 272 268 265 266 264 266 262 282 13 247 226 167 162 153 133 133 125 116 116 119 98 100 155 154 155 91 71 85 68 68 115 95 85 78 83 93 104
310 305 302 295 289 282 272 267 268 265 262 260 261 263 281 282 231 234 230 144 142 141 143 122 122 117 105 129 149 109 197 200 208 140 102 89 109 150 162 140 82 82 91 98 108
307 303 299 295 290 284 273 264 260 259 257 256 256 258 260 301 261 260 319 112 139 132 129 117 87 74 86 94 106 158 200 206 161 78 89 94 109 139 152 94 84 97 104 105 111
305 301 298 294 289 285 278 267 261 257 253 249 244 246 255 205 261 254 293 146 127 125 103 124 109 79 62 98 117 140 175 212 38 47 8 42 134 167 132 100 103 108 109 111 116
303 300 296 292 285 278 271 262 255 247 237 235 237 254 242 237 239 268 63 4 102 97 89 69 85 49 65 85 93 87 54 300 80 300 239 65 183 163 75 99 107 114 114 118 124
304 301 297 293 286 279 270 260 257 286 300 315 283 272 270 254 265 330 30 14 50 77 71 49 38 19 27 6 350 343 172 278 269 309 334 78 214 127 94 111 120 126 125 124 128
307 303 300 295 291 286 276 276 339 335 321 302 288 283 279 312 334 11 5 24 10 48 15 3 351 349 354 7 202 325 315 276 250 273 268 244 217 200 140 137 134 135 134 136 134
309 305 302 297 293 291 297 324 307 305 308 306 317 307 306 303 345 334 5 14 4 356 15 339 337 160 125 342 349 328 265 249 240 267 275 263 240 229 131 152 150 145 150 148 153
311 308 305 302 299 294 313 306 310 317 293 299 277 277 303 311 322 332 40 13 355 348 339 333 188 15 341 344 329 317 257 250 273 346 282 268 251 238 104 166 173 171 163 163 157
310 309 307 306 312 342 326 321 329 321 310 320 327 316 313 338 335 6 73 359 343 337 332 325 331 342 325 326 303 288 212 263 282 287 316 283 258 220 201 180 176 183 179 172 166
309 307 305 304 331 335 327 336 321 333 318 329 334 332 332 339 335 331 355 340 332 327 328 316 309 310 323 310 316 298 342 299 285 299 295 312 268 265 292 199 152 169 172 170 167
311 307 305 315 325 323 334 321 1 340 313 333 342 350 354 348 347 328 331 322 321 328 325 320 326 318 301 310 338 318 338 299 295 289 301 316 317 294 312 1 25 94 147 159 158
310 308 308 328 322 321 320 344 337 316 310 334 350 350 4 341 341 348 343 340 334 326 319 311 315 317 311 316 358 321 304 307 309 302 280 304 309 275 332 352 331 4 35 130 144
307 303 326 331 325 326 331 339 313 305 322 326 329 344 359 341 345 352 357 348 338 332 322 320 301 310 304 301 304 311 306 300 299 297 284 306 299 248 262 288 271 262 3 87 142
302 320 340 316 311 303 340 321 305 318 316 330 326 329 342 4 348 353 15 2 331 329 327 322 328 3 329 224 309 309 313 303 305 303 288 302 292 290 309 284 303 310 31 52 123
296 332 322 290 285 291 318 314 314 332 329 311 326 324 331 339 348 4 28 28 8 143 12 343 325 6 14 354 185 315 305 302 300 304 297 295 288 287 305 314 325 335 30 73 115
309 323 311 289 324 295 310 314 320 326 312 317 305 312 304 326 349 15 26 347 345 69 160 328 310 318 336 2 322 307 330 317 309 298 296 307 298 299 299 309 306 320 349 49 89
315 318 300 308 298 306 301 295 295 289 299 304 309 316 324 331 343 347 350 346 333 329 14 323 319 321 313 322 314 306 303 304 304 301 295 297 305 316 309 309 294 289 283 305 20
292 301 290 296 306 308 304 299 287 284 302 300 306 311 321 319 327 327 326 325 320 337 331 323 311 304 303 308 307 298 299 304 297 295 295 296 290 326 317 306 307 293 278 282 302
300 295 295 298 310 311 312 316 313 295 300 299 306 312 313 311 311 314 316 319 318 322 323 326 310 301 302 307 306 296 292 290 292 294 293 294 293 319 310 309 313 302 294 287 286
306 298 303 317 323 320 317 320 325 322 325 318 321 329 324 321 322 316 316 319 316 318 317 314 307 300 292 293 301 292 293 293 285 283 289 289 286 298 298 291 300 306 298 293 301
322 312 316 314 317 324 326 325 321 324 328 330 332 327 321 315 314 313 314 314 316 315 316 312 298 298 295 292 292 291 291 289 285 283 281 287 287 281 292 288 283 288 291 292 297
334 329 337 329 328 335 326 329 328 327 326 327 327 325 327 320 318 311 311 311 307 310 309 311 300 301 294 295 292 286 286 287 286 286 284 285 285 284 286 290 286 285 286 289 293
340 339 335 333 339 341 336 334 334 332 337 338 330 326 324 323 318 314 311 306 304 304 301 300 297 295 290 293 291 283 283 280 282 286 286 282 286 286 286 289 290 286 288 287 291